星链-34429 (STARLINK-34429)

导读 | 豆包AI

STARLINK-34429是美国于北京时间2025年6月18日发射的星链卫星,星链是SpaceX打造的低轨卫星互联网星座项目,旨在为全球提供高速低延迟互联网服务。该卫星加入后进一步扩充星链星座规模,提升星座覆盖范围与服务容量,推动全球卫星互联网布局完善。

基本信息
目录编号:
64464
目录名称:
STARLINK-34429
国际标识:
2025-130AC
轨道中心:
EARTH
卫星名称:
星链-34429
卫星全名:
星链-34429 (STARLINK-34429)
卫星状态:
在轨 (已飞行315 天)
发射日期:
2025-06-18 UTC
国别 :
美国 (US)
星等 :
--
轨道信息
数据来源 国际轨道数据
星历时间: 2026-04-29T13:46:36+0800
8小时前
查看轨道信息
半长轴: 6853.382km
偏心率: 0.0002019
轨道倾角: 53.160°
近地点辐角 87.028°
升交点赤经 213.651°
平近点角 273.095°
近地点: 473.861km
远地点: 476.629km
周期: 94.106分钟
每日圈数: 15.3019
详细信息
固有亮度:
5
最大亮度:
2.5
卫星平台:
Starlink V1.0
覆盖范围:
全球
运营商:
太空探索技术公司
运营商所在国:
美国
制造商(研发单位):
太空探索技术公司
制造商所在国:
美国
使用方式:
暂无
卫星简介
Starlink 计划是 SpaceX 推出的全球卫星互联网项目,通过发射低轨道卫星,为全球尤其是偏远地区提供高速、低延迟的互联网服务。自 2019 年起,Starlink 已部署数千颗卫星,旨在缩小全球数字鸿沟,推动互联网普及。该项目还为军事、航空等行业提供通信支持,带来广泛经济效益。
2D轨道图
3D轨道图
轨道高度分析图
轨道倾角分析图
轨道综合分析图
查看轨道综合分析图